Location: Peterborough
(44.3000°N, 78.3333°W)
Time: 10:39:17
(UTC-05:00)

ISS - Visible Passes

Search period start: 23 January 2018 00:00
Search period end: 02 February 2018 00:00
Orbit: 402 x 407 km, 51.6° (Epoch: 23 January)

Date Brightness Start Highest point End Pass type
(mag) Time Alt. Az. Time Alt. Az. Time Alt. Az.
24 Jan -1.8 19:12:45 10° SSW 19:14:09 21° S 19:14:09 21° S visible
25 Jan -2.0 18:21:15 10° S 18:23:32 18° SE 18:24:20 17° ESE visible
25 Jan -0.7 19:56:28 10° WSW 19:57:01 14° WSW 19:57:01 14° WSW visible
26 Jan -3.7 19:04:07 10° SW 19:07:07 67° S 19:07:07 67° S visible
27 Jan -3.1 18:12:01 10° SSW 18:15:05 39° SE 18:17:07 18° E visible
27 Jan -1.1 19:48:30 10° W 19:49:47 20° WNW 19:49:47 20° WNW visible
28 Jan -3.4 18:55:54 10° WSW 18:59:07 56° NNW 18:59:43 46° NNE visible
29 Jan -3.9 18:03:27 10° WSW 18:06:42 87° SSE 18:09:35 13° ENE visible
29 Jan -1.4 19:40:39 10° WNW 19:42:14 21° NW 19:42:14 21° NW visible
30 Jan -2.6 18:47:55 10° W 18:50:56 33° NNW 18:52:02 26° NNE visible
31 Jan -3.2 17:55:14 10° W 17:58:24 48° NNW 18:01:36 10° NE visible
31 Jan -1.5 19:32:45 10° WNW 19:34:27 19° NNW 19:34:27 19° NNW visible
01 Feb -2.2 18:40:01 10° WNW 18:42:47 25° N 18:44:11 19° NNE visible
